Weather History for The Dalles, OR

Change the Weather History Date:

Saturday, January 5, 2013

  Actual Average Record
Temperature  
Mean Temperature 28 °F -  
Max Temperature 30 °F 38 °F 58 °F (1983)
Min Temperature 27 °F 27 °F 0 °F (1974)
Degree Days  
Heating Degree Days 36    
Moisture  
Dew Point 26 °F    
Average Humidity 89    
Maximum Humidity 100    
Minimum Humidity 75    
Precipitation  
Precipitation 0.16 in - - ()
Sea Level Pressure  
Sea Level Pressure 30.36 in    
Wind  
Wind Speed 0 mph (ESE)    
Max Wind Speed 4 mph    
Max Gust Speed -    
Visibility 3 miles    
Events Fog , Snow    
Averages and records for this station are not official NWS values.
T = Trace of Precipitation, MM = Missing Value Source: NWS Daily Summary

Daily Weather History Graph

Daily Weather History Graph

Search for Another Location

Airport:

Trip Planner

Search our weather history database for the weather conditions in past years. The results will help you decide how hot, cold, wet, or windy it might be!

Date:

Astronomy

Jan. 05, 2013 Rise Set
Actual Time 7:44 AM PST 4:35 PM PST
Civil Twilight 7:11 AM PST 5:09 PM PST
Nautical Twilight 6:33 AM PST 5:47 PM PST
Astronomical Twilight 5:57 AM PST 6:23 PM PST
Moon 12:46 AM PST (1/5) 11:37 AM PST (1/5)
Length of Visible Light 9h 58m
Length of Day
8h 50m
Last Quarter, 43% of the Moon is Illuminated
Jan 5
Last Quarter
Jan 11
New
Jan 18
First Quarter
Jan 26
Full
Feb 3
Last Quarter

Hourly Weather History & Observations

Time (PST) Temp. Windchill Dew Point Humidity Pressure Visibility Wind Dir Wind Speed Gust Speed Precip Events Conditions
12:53 AM 27.0 °F - 19.9 °F 75% 30.45 in 10.0 mi Calm Calm - N/A   Overcast
1:53 AM 27.0 °F 23.0 °F 19.9 °F 75% 30.45 in 10.0 mi ESE 3.5 mph - N/A   Overcast
2:53 AM 28.0 °F - 21.0 °F 75% 30.46 in 10.0 mi Calm Calm - N/A   Overcast
3:53 AM 28.0 °F - 21.0 °F 75% 30.44 in 10.0 mi Calm Calm - N/A   Overcast
4:53 AM 28.0 °F - 21.9 °F 78% 30.43 in 10.0 mi Calm Calm - N/A   Overcast
5:53 AM 28.0 °F - 21.9 °F 78% 30.43 in 10.0 mi Calm Calm - N/A   Overcast
6:53 AM 28.9 °F - 21.9 °F 75% 30.42 in 10.0 mi Calm Calm - N/A   Overcast
7:53 AM 28.9 °F - 23.0 °F 78% 30.42 in 10.0 mi Calm Calm - N/A   Overcast
8:53 AM 30.0 °F - 23.0 °F 75% 30.43 in 8.0 mi Calm Calm - N/A   Overcast
9:53 AM 30.0 °F - 23.0 °F 75% 30.44 in 7.0 mi Calm Calm - N/A   Overcast
10:49 AM 30.2 °F - 24.8 °F 80% 30.41 in 1.8 mi Calm Calm - 0.00 in Snow Light Snow
10:53 AM 30.0 °F - 24.1 °F 79% 30.42 in 1.5 mi Calm Calm - 0.00 in Snow Light Snow
11:53 AM 28.9 °F - 26.1 °F 89% 30.40 in 1.0 mi Calm Calm - 0.00 in Snow Light Snow
12:03 PM 28.4 °F - 26.6 °F 93% 30.39 in 0.5 mi Calm Calm - 0.01 in Fog , Snow Snow
12:13 PM 28.4 °F - 26.6 °F 93% 30.38 in 0.2 mi Calm Calm - 0.03 in Fog , Snow Snow
12:21 PM 30.2 °F - 26.6 °F 86% 30.38 in 0.5 mi Calm Calm - 0.03 in Fog , Snow Snow
12:53 PM 30.0 °F - 27.0 °F 88% 30.38 in 0.8 mi Calm Calm - 0.05 in Snow Light Snow
1:01 PM 30.2 °F - 26.6 °F 86% 30.37 in 0.8 mi Calm Calm - 0.00 in Snow Light Snow
1:11 PM 30.2 °F - 26.6 °F 86% 30.36 in 0.8 mi Calm Calm - 0.01 in Snow Light Snow
1:53 PM 30.0 °F - 27.0 °F 88% 30.37 in 0.8 mi Calm Calm - 0.03 in Snow Light Snow
2:19 PM 30.2 °F - 28.4 °F 93% 30.35 in 0.5 mi Calm Calm - 0.01 in Fog , Snow Snow
2:48 PM 30.2 °F - 28.4 °F 93% 30.35 in 0.5 mi Calm Calm - 0.02 in Fog , Snow Snow
2:53 PM 30.0 °F - 28.0 °F 92% 30.36 in 0.5 mi Calm Calm - 0.03 in Fog , Snow Snow
3:53 PM 30.0 °F - 28.0 °F 92% 30.35 in 0.8 mi Calm Calm - 0.02 in Snow Light Snow
4:50 PM 30.2 °F - 28.4 °F 93% 30.34 in 1.2 mi Calm Calm - 0.02 in Snow Light Snow
4:53 PM 30.0 °F - 28.0 °F 92% 30.35 in 1.2 mi Calm Calm - 0.02 in Snow Light Snow
5:26 PM 28.4 °F - 26.6 °F 93% 30.34 in 1.5 mi Calm Calm - 0.00 in Snow Light Snow
5:37 PM 28.4 °F - 28.4 °F 100% 30.34 in 1.5 mi Calm Calm - 0.00 in Snow Light Snow
5:48 PM 28.4 °F - 26.6 °F 93% 30.34 in 1.5 mi Calm Calm - 0.00 in Snow Light Snow
5:53 PM 30.0 °F - 28.0 °F 92% 30.35 in 1.8 mi Calm Calm - 0.00 in Snow Light Snow
6:02 PM 28.4 °F - 28.4 °F 100% 30.34 in 1.5 mi Calm Calm - 0.00 in Snow Light Snow
6:09 PM 30.2 °F - 28.4 °F 93% 30.34 in 1.5 mi Calm Calm - 0.00 in Snow Light Snow
6:24 PM 30.2 °F - 28.4 °F 93% 30.34 in 2.0 mi Calm Calm - 0.00 in   Overcast
6:42 PM 30.2 °F - 28.4 °F 93% 30.33 in 2.5 mi Calm Calm - 0.00 in   Overcast
6:53 PM 30.0 °F - 28.0 °F 92% 30.35 in 2.5 mi Calm Calm - 0.00 in   Overcast
7:11 PM 30.2 °F - 28.4 °F 93% 30.33 in 3.0 mi Calm Calm - 0.00 in   Overcast
7:22 PM 30.2 °F - 28.4 °F 93% 30.33 in 2.0 mi Calm Calm - 0.01 in Snow Light Snow
7:39 PM 30.2 °F - 26.6 °F 86% 30.33 in 1.5 mi Calm Calm - 0.01 in Snow Light Snow
7:53 PM 28.9 °F - 28.0 °F 96% 30.34 in 1.5 mi Calm Calm - 0.01 in Snow Light Snow
8:05 PM 28.4 °F - 26.6 °F 93% 30.33 in 1.8 mi Calm Calm - 0.00 in Snow Light Snow
8:34 PM 28.4 °F - 28.4 °F 100% 30.32 in 2.0 mi Calm Calm - 0.00 in   Overcast
8:40 PM 28.4 °F - 28.4 °F 100% 30.32 in 1.8 mi Calm Calm - 0.00 in Snow Light Snow
8:48 PM 28.4 °F - 28.4 °F 100% 30.31 in 1.5 mi Calm Calm - 0.00 in Snow Light Snow
8:53 PM 30.0 °F - 28.0 °F 92% 30.33 in 1.5 mi Calm Calm - 0.00 in Snow Light Snow
9:24 PM 28.4 °F - 28.4 °F 100% 30.31 in 2.0 mi Calm Calm - 0.00 in Snow Light Snow
9:53 PM 28.9 °F - 27.0 °F 92% 30.32 in 2.5 mi Calm Calm - 0.00 in Snow Light Snow
10:04 PM 28.4 °F - 26.6 °F 93% 30.31 in 2.5 mi Calm Calm - 0.00 in   Overcast
10:27 PM 30.2 °F - 26.6 °F 86% 30.31 in 3.0 mi Calm Calm - 0.00 in   Overcast
10:53 PM 30.0 °F - 27.0 °F 88% 30.31 in 4.0 mi Calm Calm - 0.00 in   Overcast
11:53 PM 28.9 °F - 27.0 °F 92% 30.30 in 3.0 mi Calm Calm - N/A   Overcast